Home   Weather   Oviedo   Past weeks

Flag for Spain Past Weather in Oviedo, Spain — Yesterday and Last 2 Weeks

Now
72 °F

Scattered clouds.


Feels Like: 74 °F
Forecast: 61 / 67 °F
Wind: 6 mph from Northeast

Location: Oviedo

Current Time: Aug 17, 2017 at 9:35:43 pm

Latest Report: Aug 17, 2017 at 8:00 pm


Visibility: 5 mi

Pressure: 30.09 "Hg

Humidity: 73%

Dew Point: 63 °F

Location of OviedoLocation

Past Weather in Oviedo — Graph

°F

Oviedo Temperature Yesterday

Maximum temperature yesterday: 79 °F (at 3:00 pm)
Minimum temperature yesterday: 62 °F (at 4:00 am)
Average temperature yesterday: 68 °F

High & Low Weather Summary for the Past Weeks

 TemperatureHumidityPressure
High83 °F (Aug 4, 2:00 pm)100% (Aug 5, 2:00 am)30.40 "Hg (Aug 5, 2:00 am)
Low53 °F (Aug 9, 8:00 am)48% (Aug 16, 3:00 pm)29.88 "Hg (Aug 14, 2:00 pm)
Average64 °F83%30.16 "Hg
* Reported Aug 2 8:00 pm — Aug 17 8:00 pm, Oviedo. Weather by CustomWeather, © 2017

Note: Actual official high and low records may vary slightly from our data, if they occured in-between our weather recording intervals... More about our weather records

Advertising

Oviedo Weather History for the Previous 24 Hours

Scroll right to see more
 ConditionsComfort  
Time TempWeatherWind HumidityBarometerVisibility
8:00 pm
Thu, Aug 17
72 °FScattered clouds.6 mph73%30.09 "Hg5 mi
7:00 pm77 °FWarm.5 mph66%30.06 "Hg12 mi
6:00 pm80 °FWarm.7 mph61%30.05 "Hg12 mi
5:00 pm81 °FScattered clouds.6 mph59%30.06 "Hg9 mi
4:00 pm80 °FWarm.6 mph60%30.08 "Hg12 mi
3:00 pm80 °FWarm.6 mph57%30.10 "Hg12 mi
2:00 pm78 °FPartly sunny.3 mph58%30.12 "Hg9 mi
1:00 pm76 °FMild.1 mph65%30.14 "Hg12 mi
12:00 pm72 °FMild.3 mph72%30.16 "Hg12 mi
11:00 am68 °FScattered clouds.3 mph80%30.16 "Hg9 mi
10:00 am66 °FMild.2 mph85%30.17 "Hg12 mi
9:00 am62 °FCool.3 mph95%30.19 "Hg12 mi
8:00 am59 °FPartly sunny.2 mph96%30.19 "Hg9 mi
7:00 am60 °FCool.3 mph97%30.17 "Hg11 mi
6:00 am60 °FCool.3 mph95%30.16 "Hg11 mi
5:00 am60 °FClear.3 mph94%30.16 "Hg12 mi
4:00 am61 °FCool.3 mph92%30.17 "Hg12 mi
3:00 am61 °FCool.5 mph89%30.17 "Hg12 mi
2:00 am62 °FClear.1 mph87%30.17 "Hg12 mi
1:00 am63 °FMild.2 mph82%30.18 "Hg12 mi
12:00 am64 °FMild.3 mph79%30.19 "Hg12 mi
11:00 pm
Wed, Aug 16
65 °FPassing clouds.3 mph76%30.20 "Hg12 mi
10:00 pm67 °FMild.5 mph72%30.21 "Hg12 mi
9:00 pm69 °FMild.6 mph68%30.19 "Hg0 mi
Weather by CustomWeather, © 2017

See weather overviewHow to use our weather pages